Regional Weather Roundup
Issued by NWS

Current Version | Previous Version | Text Only | Print | Product List | Glossary On
Versions: 1 2 3 4 5 6 7 8 9 10 11 12 13 14 15 16 17 18 19 20 21 22 23 24 25 26 27 28 29 30 31 32 33 34 35 36 37 38 39 40 41 42 43 44 45 46 47 48 49 50
000
ASUS43 KOAX 210610
RWRNE

WEATHER ROUNDUP FOR NEBRASKA
NATIONAL WEATHER SERVICE OMAHA NE
100 AM CDT SUN OCT 21 2018

NOTES: SATELLITE DATA IS BEING USED TO AUGMENT CLOUD COVER ABOVE
       12000 FEET.
       "FAIR" INDICATES FEW OR NO CLOUDS BELOW 12,000 FEET WITH NO
       SIGNIFICANT WEATHER AND/OR OBSTRUCTIONS TO VISIBILITY.


NEZ001>004-019>022-054>056-210700-
NEBRASKA PANHANDLE

CITY           SKY/WX    TMP DP  RH WIND       PRES   REMARKS
SCOTTSBLUFF    CLEAR     42  34  73 E6        30.21F
6HR MIN TEMP:  41; 6HR MAX TEMP:  60;

ALLIANCE       CLEAR     43  32  65 S8        30.21F
6HR MIN TEMP:  42; 6HR MAX TEMP:  53;

CHADRON        CLEAR     48  31  51 SW9       30.13S
6HR MIN TEMP:  48; 6HR MAX TEMP:  59;

GORDON         FAIR      50  32  49 SW13G18   30.16F
6HR MIN TEMP:  43; 6HR MAX TEMP:  56;

KIMBALL        CLEAR     43  30  60 S7        30.24F
SIDNEY         CLEAR     43  32  65 S12       30.24F
6HR MIN TEMP:  40; 6HR MAX TEMP:  55;

$$

NEZ057>060-069>072-079>082-210700-
SOUTHWEST NEBRASKA

CITY           SKY/WX    TMP DP  RH WIND       PRES   REMARKS
NORTH PLATTE   CLEAR     40  32  73 SE9       30.28F WCI  34
6HR MIN TEMP:  36; 6HR MAX TEMP:  53;

IMPERIAL       CLEAR     45  31  58 SE10      30.27F
6HR MIN TEMP:  42; 6HR MAX TEMP:  55;

LEXINGTON      CLEAR     40  29  65 S7        30.31S
MCCOOK         CLEAR     45  33  63 SE6       30.30F
6HR MIN TEMP:  45; 6HR MAX TEMP:  62;

OGALLALA       CLEAR     47  32  56 S5        30.26F
$$

NEZ005>010-023>029-035>040-094-210700-
NORTH CENTRAL NEBRASKA

CITY           SKY/WX    TMP DP  RH WIND       PRES   REMARKS
VALENTINE      CLEAR     46  30  53 S9        30.19F
6HR MIN TEMP:  42; 6HR MAX TEMP:  51;

AINSWORTH      CLEAR     41  28  59 S14       30.21F
BROKEN BOW     CLEAR     40  27  59 S7        30.27F
6HR MIN TEMP:  32; 6HR MAX TEMP:  50;

O`NEILL        CLEAR     37  24  59 S13       30.26F WCI  29
ORD            CLEAR     37  25  61 S6        30.28F WCI  32
6HR MIN TEMP:  32; 6HR MAX TEMP:  50;

THEDFORD       CLEAR     46  31  57 S10       30.24F
$$

NEZ041-046>049-061>064-073>077-083>087-210700-
SOUTH CENTRAL NEBRASKA

CITY           SKY/WX    TMP DP  RH WIND       PRES   REMARKS
GRAND ISLAND   CLOUDY    39  25  57 S9        30.32F WCI  33
6HR MIN TEMP:  38; 6HR MAX TEMP:  49;

AURORA         CLOUDY    36  26  66 SE6       30.32F WCI  31
HASTINGS       CLOUDY    41  25  53 S8        30.33F
6HR MIN TEMP:  41; 6HR MAX TEMP:  50;

HEBRON         CLOUDY    39  28  64 E3        30.35F
HOLDREGE       CLEAR     39  30  68 S7        30.31S WCI  34
KEARNEY        CLOUDY    37  27  67 S7        30.32F WCI  32
YORK           CLOUDY    36  27  69 SE7       30.33F WCI  30
$$

NEZ011>018-030>034-042>045-210700-
NORTHEAST NEBRASKA

CITY           SKY/WX    TMP DP  RH WIND       PRES   REMARKS
NORFOLK        CLOUDY    34  24  67 SE7       30.30F WCI  28
6HR MIN TEMP:  28; 6HR MAX TEMP:  43;

ALBION         CLOUDY    30  27  90 CALM      30.31S
BLAIR          CLOUDY    37  25  62 SE5       30.35F WCI  34
COLUMBUS       CLOUDY    29  26  89 E3        30.33F
FREMONT        CLOUDY    33  28  83 CALM      30.35F
TEKAMAH        CLOUDY    28  26  92 S5        30.36F WCI  23
6HR MIN TEMP:  28; 6HR MAX TEMP:  44;

WAYNE          CLOUDY    25  21  85 SW5       30.31F WCI  19
$$

NEZ050>053-065>068-078-088>093-210700-
SOUTHEAST NEBRASKA

CITY           SKY/WX    TMP DP  RH WIND       PRES   REMARKS
LINCOLN        CLOUDY    31  25  78 CALM      30.36F
6HR MIN TEMP:  30; 6HR MAX TEMP:  46;

OMAHA EPPLEY   CLOUDY    36  28  73 SE3       30.38S
6HR MIN TEMP:  36; 6HR MAX TEMP:  46;

BEATRICE       CLOUDY    34  29  81 CALM      30.37S
FALLS CITY     CLOUDY    33  28  81 CALM      30.39S
6HR MIN TEMP:  33; 6HR MAX TEMP:  50;

NEBRASKA CITY  CLOUDY    39  20  47 SE5       30.38F
PLATTSMOUTH    CLOUDY    36  27  69 SE7       30.37F WCI  30
$$

NEZ044-045-051>053-067-210700-
OMAHA AREA

CITY           SKY/WX    TMP DP  RH WIND       PRES   REMARKS
OMAHA EPPLEY   CLOUDY    36  28  73 SE3       30.38S
6HR MIN TEMP:  36; 6HR MAX TEMP:  46;

BLAIR          CLOUDY    37  25  62 SE5       30.35F WCI  34
FREMONT        CLOUDY    33  28  83 CALM      30.35F
MILLARD        CLOUDY    35  32  90 CALM      30.37F
OFFUTT AFB     CLOUDY    33  33  99 CALM      30.37F
PLATTSMOUTH    CLOUDY    36  27  69 SE7       30.37F WCI  30
WAHOO          FAIR      30  26  85 SE3       30.35F
$$



USA.gov is the U.S. government's official web portal to all federal, state and local government web resources and services.